This is the latest recevied weather packets stored in our database for station/object W4NDF-13. If no packets are shown the sender has not sent any weather packets the latest 10 day(s).
| Time | Temp. | Humidity | Pressure | Rain* | Wind** | Luminosity | Snow |
|---|---|---|---|---|---|---|---|
| 1777738960 | 18.89° C | 71% | 1017.7 hPa | 0 mm | - | 759 W/m² | - |
| 1777738657 | 18.89° C | 73% | 1017.7 hPa | 0 mm | - | 752 W/m² | - |
| 1777738354 | 18.89° C | 73% | 1017.6 hPa | 0 mm | - | 749 W/m² | - |
| 1777738052 | 18.89° C | 75% | 1017.6 hPa | 0 mm | - | 731 W/m² | - |
| 1777737751 | 18.33° C | 75% | 1017.6 hPa | 0 mm | - | 717 W/m² | - |
| 1777737449 | 18.33° C | 75% | 1017.7 hPa | 0 mm | - | 297 W/m² | - |
| 1777737146 | 18.33° C | 75% | 1017.6 hPa | 0 mm | - | 787 W/m² | - |
| 1777736842 | 18.89° C | 76% | 1017.8 hPa | 0 mm | - | 345 W/m² | - |
| 1777736223 | 17.78° C | 78% | 1017.8 hPa | 0 mm | - | 232 W/m² | - |
| 1777735920 | 17.78° C | 78% | 1017.7 hPa | 0 mm | - | 346 W/m² | - |
| 1777735617 | 17.78° C | 78% | 1017.5 hPa | 0 mm | - | 317 W/m² | - |
| 1777735315 | 17.78° C | 79% | 1017.6 hPa | 0 mm | - | 254 W/m² | - |
| 1777735012 | 17.78° C | 78% | 1017.4 hPa | 0 mm | - | 217 W/m² | - |
| 1777734710 | 17.78° C | 78% | 1017.6 hPa | 0 mm | - | 679 W/m² | - |
| 1777734407 | 17.22° C | 79% | 1017.5 hPa | 0 mm | - | 214 W/m² | - |
| 1777734103 | 17.22° C | 80% | 1017.3 hPa | 0 mm | - | 649 W/m² | - |
| 1777733799 | 17.22° C | 80% | 1017.4 hPa | 0 mm | - | 636 W/m² | - |
| 1777733496 | 17.22° C | 79% | 1017.2 hPa | 0 mm | - | 325 W/m² | - |
| 1777733192 | 16.67° C | 81% | 1017.2 hPa | 0 mm | - | 605 W/m² | - |
| 1777732889 | 16.11° C | 82% | 1017 hPa | 0 mm | - | 169 W/m² | - |
| 1777732586 | 15.56° C | 84% | 1017.2 hPa | 0 mm | - | 213 W/m² | - |
| 1777732284 | 16.11° C | 83% | 1017.1 hPa | 0 mm | - | 226 W/m² | - |
| 1777731981 | 16.11° C | 81% | 1017.1 hPa | 0 mm | - | 324 W/m² | - |
| 1777731677 | 16.11° C | 83% | 1016.7 hPa | 0 mm | - | 348 W/m² | - |
| 1777731375 | 16.11° C | 83% | 1016.5 hPa | 0 mm | - | 223 W/m² | - |
* Rain latest hour (hover to see other rain measurements)
** Current wind speed in m/s (hover to see current wind gust speed)